Temperature
16 16 16 16 16 17 17 17 17 17 17 17 17 17 17 17 17 17 17 16 16 15 15 14 13 13 12 12 11 11 11 11 11 11 11 11 11 11 10 10 9 9 8
15 15 15 15 16 16 16 16 17 17 17 17 17 17 17 17 17 17 17 17 16 16 15 14 14 13 12 12 11 11 11 11 11 11 11 11 10 11 10 10 9 9 8
13 14 15 15 15 15 16 16 16 16 16 16 16 16 16 16 16 16 16 16 16 16 15 15 15 14 13 12 12 11 11 11 11 11 11 11 11 11 11 10 10 9 8
12 13 14 14 15 15 15 16 16 16 16 16 16 16 16 15 16 16 16 16 16 16 16 15 15 15 14 13 12 12 12 11 11 11 11 11 11 11 10 10 9 9 8
12 13 13 13 14 14 15 15 15 16 16 16 16 16 15 16 16 16 16 15 16 16 16 15 15 15 14 14 13 12 12 11 11 11 11 11 10 10 10 10 9 9 8
12 12 12 13 13 13 14 14 15 15 15 15 15 15 15 15 15 15 15 15 15 15 15 15 15 15 15 14 14 13 12 11 11 11 11 10 10 10 10 9 9 8 7
11 11 12 12 12 12 13 13 14 14 14 15 15 15 15 15 15 15 15 15 15 15 15 15 15 15 15 14 14 13 12 11 11 10 10 9 9 9 9 8 8 7 6
10 10 10 10 11 11 11 12 12 13 13 14 14 14 14 14 14 14 15 15 15 15 15 15 15 15 14 14 13 12 11 11 10 9 9 8 8 8 8 7 7 6 5
10 9 10 10 10 10 10 10 11 11 12 12 13 13 14 14 14 14 14 14 14 14 14 14 14 14 14 13 12 11 11 10 9 8 7 7 7 6 6 5 5 4 3
9 9 9 9 9 9 9 9 10 10 11 11 12 12 13 13 13 13 13 13 13 13 13 13 13 13 13 12 11 10 10 9 8 7 6 5 5 5 4 4 3 2 2
8 8 7 8 8 8 8 9 9 9 10 10 11 11 12 12 12 12 12 12 11 11 11 11 11 11 11 10 10 9 8 7 6 5 5 4 3 3 3 2 2 1 0
7 7 6 7 7 7 7 8 8 9 9 10 10 10 11 11 11 10 10 10 10 10 9 10 10 9 9 9 8 7 6 5 4 4 3 3 3 2 2 1 0 -0 -1
6 6 6 6 6 6 7 7 7 8 8 9 9 9 9 9 9 9 9 9 9 8 8 9 9 8 8 7 6 5 4 3 3 3 2 2 2 1 1 -0 -1 -2 -2
5 4 5 5 5 5 6 6 6 7 7 7 8 8 8 8 8 8 8 8 8 8 8 8 7 7 6 5 4 3 3 2 2 2 2 2 1 0 -0 -1 -2 -2 -3
3 3 3 4 4 5 5 5 5 6 6 6 6 7 6 6 6 6 6 6 6 6 6 6 5 4 3 3 2 2 2 2 2 1 1 1 -0 -1 -2 -2 -3 -4 -4
2 2 2 3 3 4 4 4 4 4 4 5 5 5 5 5 5 5 5 5 4 4 4 3 3 2 1 1 1 1 1 1 1 1 0 -1 -2 -2 -3 -3 -4 -5 -6
1 1 2 2 2 3 3 3 3 3 3 3 3 3 3 3 3 3 2 2 2 1 1 1 1 1 0 0 1 1 1 1 0 -1 -1 -2 -3 -3 -4 -4 -4 -5 -6
1 1 1 1 1 1 2 2 2 2 2 2 2 1 1 1 1 1 0 0 0 -0 -0 -0 -0 0 0 0 0 0 -0 -1 -2 -2 -3 -3 -3 -4 -4 -5 -6 -6 -7
1 1 0 0 0 1 1 1 1 1 1 1 1 0 0 0 0 -0 -0 -0 -0 -0 -0 -0 -0 -0 -0 -1 -1 -1 -2 -2 -3 -3 -4 -4 -4 -5 -6 -8 -8 -8 -8
1 0 -0 -0 0 0 -0 0 0 0 0 -0 -0 -0 -0 -0 -0 -0 -0 -0 -0 -0 -0 -0 -1 -1 -1 -2 -2 -3 -3 -3 -4 -4 -5 -5 -6 -7 -8 -9 -9 -8 -8
1 0 0 0 -0 -0 -0 0 0 -0 -0 -0 -0 -0 -0 -0 -0 -0 -0 -0 -0 -0 -1 -1 -1 -2 -3 -4 -4 -4 -4 -5 -5 -5 -6 -6 -7 -8 -9 -9 -9 -9 -9
2 1 1 1 0 0 0 0 0 -0 -0 -0 -0 -0 -0 -0 -1 -1 -1 -1 -1 -1 -1 -2 -2 -3 -3 -4 -5 -5 -6 -6 -6 -7 -7 -7 -8 -9 -9 -9 -8 -9 -9
2 2 1 1 1 1 1 1 0 0 0 0 -0 -0 -0 -0 -1 -1 -1 -1 -2 -2 -2 -3 -3 -4 -4 -5 -5 -6 -6 -7 -8 -8 -8 -9 -8 -8 -8 -8 -8 -8 -8
3 2 2 2 1 1 1 1 1 0 0 0 -0 -0 -0 -1 -1 -1 -2 -2 -2 -3 -3 -4 -4 -5 -5 -6 -7 -7 -7 -8 -8 -8 -8 -8 -8 -8 -8 -8 -8 -8 -8
3 3 2 2 2 1 1 1 0 0 0 0 -0 -1 -1 -1 -2 -2 -2 -3 -3 -4 -4 -5 -5 -6 -6 -8 -8 -8 -8 -8 -8 -8 -8 -8 -8 -8 -8 -8 -8 -8 -8
3 3 2 2 2 1 1 1 0 -0 -0 -0 -1 -1 -1 -2 -2 -3 -3 -3 -4 -5 -5 -6 -6 -7 -7 -8 -8 -8 -8 -8 -8 -8 -8 -8 -8 -8 -8 -8 -8 -8 -8
Wind_Speed
10 8 8 9 8 8 9 11 11 12 11 10 12 13 14 13 12 13 16 18 19 20 16 10 10 10 11 11 10 6 5 3 4 4 2 1 1 2 2 4 4 5 5
10 9 7 7 7 8 8 9 11 11 12 11 12 10 11 10 13 11 12 17 18 19 17 14 13 12 10 11 11 7 5 4 5 5 3 2 2 2 1 2 3 4 5
10 10 8 7 6 7 8 7 9 10 11 11 8 5 6 5 7 9 12 13 17 18 17 15 14 14 14 14 14 12 10 6 4 3 5 5 6 3 1 1 2 3 3
7 7 8 8 7 7 6 6 7 8 9 9 9 11 12 13 13 12 13 13 15 17 18 16 15 16 14 14 15 13 8 8 6 3 1 2 4 4 3 2 1 2 3
7 8 8 8 7 7 6 5 6 7 7 8 10 11 14 13 10 10 12 13 14 15 16 16 15 16 15 15 14 13 10 7 8 6 4 3 2 2 4 4 3 1 2
9 9 9 9 8 8 8 7 6 7 6 7 8 11 14 13 11 11 12 12 10 12 15 14 15 15 13 14 14 14 14 9 8 7 5 5 4 4 4 3 3 3 1
10 11 13 13 12 12 11 9 9 9 8 7 8 10 12 13 14 14 14 12 11 12 16 16 15 13 12 13 11 12 12 10 10 8 4 3 3 3 4 4 3 2 0
10 10 11 10 10 11 11 10 10 10 9 8 8 8 10 9 10 12 11 13 13 14 14 16 14 13 12 12 10 9 8 8 8 8 7 6 4 3 3 4 4 2 1
11 11 11 10 10 11 11 10 10 11 10 9 9 9 8 9 10 10 10 9 8 7 10 12 11 10 10 11 11 8 9 9 8 9 9 6 5 5 5 4 3 4 2
11 12 11 11 11 10 10 10 9 10 10 9 8 8 7 7 7 6 7 7 6 6 9 10 10 11 11 12 11 10 11 11 10 8 10 8 5 5 5 4 3 2 3
11 11 11 12 12 11 10 9 9 9 9 8 8 7 5 4 3 3 4 4 5 8 10 11 11 12 12 12 12 12 13 14 11 10 10 9 7 5 4 3 2 1 2
9 10 11 12 11 11 10 9 9 9 9 8 7 5 3 2 1 2 4 6 8 9 11 12 13 13 13 13 14 14 13 13 12 11 10 9 6 6 4 2 2 2 4
9 9 10 11 11 11 10 9 8 9 9 8 7 6 5 4 4 5 7 8 10 11 11 12 13 13 13 14 14 14 13 12 11 10 9 7 6 4 3 3 3 3 4
9 9 10 10 10 10 9 9 9 9 8 8 7 8 7 7 8 8 9 10 11 12 13 13 14 14 14 15 14 14 14 12 10 9 8 6 4 3 3 3 5 5 5
9 10 11 10 10 9 8 8 9 9 8 9 10 10 10 10 11 12 12 13 13 14 14 15 15 14 13 13 14 13 12 11 10 8 6 4 2 3 4 4 5 5 5
9 9 10 10 10 9 8 8 8 8 8 10 10 10 11 12 13 13 14 14 14 14 15 15 15 13 12 18 18 14 10 9 8 6 4 2 1 1 3 6 7 7 5
7 8 8 8 8 7 7 7 7 8 9 10 10 10 11 12 13 13 14 14 13 14 14 14 14 14 16 19 18 16 10 8 6 5 3 2 1 2 2 6 8 9 12
5 6 6 6 6 6 6 7 8 9 9 10 10 10 10 11 11 12 13 12 11 11 12 12 12 12 14 17 17 15 9 7 5 4 3 1 1 3 6 5 5 6 7
3 3 4 4 5 6 6 7 8 9 9 9 9 9 9 10 11 11 11 10 10 11 10 10 10 10 10 13 12 11 6 5 4 3 1 1 3 8 11 5 4 6 6
3 3 4 5 6 6 6 8 8 8 9 8 8 8 9 10 10 10 9 9 9 10 10 10 8 8 5 7 9 9 4 4 2 1 1 4 7 10 11 5 4 6 7
3 3 4 5 5 5 6 8 8 8 7 8 9 9 9 10 10 9 8 9 9 10 9 9 8 7 6 7 8 8 3 2 2 0 2 4 9 11 12 10 3 9 10
3 3 4 5 5 5 6 8 7 6 7 8 9 9 9 8 8 9 8 8 8 9 8 7 7 5 6 7 8 8 5 3 1 2 3 5 11 12 12 9 11 14 10
3 3 5 5 5 5 6 7 5 6 7 9 9 8 9 8 7 7 7 6 6 6 5 5 5 4 4 5 7 7 7 7 3 3 7 9 11 11 8 10 12 9 4
4 4 5 6 5 5 6 6 5 6 8 9 8 7 8 8 7 6 6 6 5 5 4 4 3 3 3 3 2 2 3 5 5 3 5 8 9 8 8 8 7 5 5
4 5 5 6 5 5 6 5 6 7 8 8 7 7 7 6 6 6 5 5 3 4 4 2 2 1 1 3 5 4 2 3 3 2 2 3 4 5 5 6 5 5 6
6 6 6 6 5 6 6 5 5 6 8 7 6 5 5 5 5 5 5 8 7 9 7 4 2 1 4 6 8 9 9 9 9 5 3 4 5 5 6 7 8 7 6
Wind_Direction
276 268 255 252 249 242 233 230 226 224 216 209 210 213 217 216 213 213 211 206 201 196 193 189 181 180 182 180 168 146 139 135 144 116 96 36 44 190 201 197 194 201 199
295 290 276 264 250 245 236 231 230 229 220 215 212 212 214 217 216 213 210 206 200 195 194 189 188 186 181 176 175 158 147 148 170 146 136 197 291 261 196 197 197 195 182
299 304 305 292 277 264 252 242 232 230 227 222 214 205 201 205 205 210 213 207 200 197 196 193 188 187 186 188 187 180 165 162 188 193 155 162 210 210 248 233 197 185 172
320 320 324 321 308 287 277 260 249 240 235 224 216 210 212 217 216 215 215 207 201 199 198 193 191 189 191 191 191 186 175 155 166 188 185 142 145 156 188 255 240 198 185
350 348 342 332 330 328 319 298 281 263 249 232 221 219 224 226 220 212 210 208 204 201 199 195 193 193 195 194 188 185 183 174 166 163 155 141 94 131 153 191 209 219 207
358 356 351 351 348 346 342 334 316 291 271 251 236 226 227 227 220 212 211 209 204 201 200 196 196 196 194 192 189 186 185 184 169 164 162 159 161 177 164 161 171 196 228
354 353 351 348 343 339 336 333 327 311 296 271 250 238 235 232 226 220 217 210 206 205 202 198 198 197 194 189 182 180 183 176 167 163 153 135 129 136 138 133 139 152 310
347 344 338 333 328 324 324 326 323 311 304 289 271 254 243 238 235 226 220 215 213 211 201 198 196 192 185 179 170 168 165 154 145 137 129 121 111 104 113 129 133 127 332
340 337 331 327 321 316 313 314 313 308 304 295 284 272 254 240 237 231 222 218 213 199 188 187 181 172 165 161 156 155 145 135 128 125 119 110 102 91 85 94 118 143 189
334 333 330 326 320 312 309 311 307 301 300 297 287 281 267 253 242 227 218 209 192 169 162 161 155 150 147 145 141 137 132 125 121 121 114 106 98 89 87 93 89 110 168
328 328 326 323 318 317 317 319 321 319 317 315 308 299 291 280 247 214 197 169 145 141 144 144 140 138 138 137 134 132 130 124 120 116 112 109 106 104 100 100 108 141 176
325 327 327 328 330 330 331 330 330 333 332 330 331 328 334 6 71 107 119 124 126 130 133 133 132 132 131 131 130 128 124 122 119 115 113 115 115 115 122 133 171 203 211
332 334 336 338 339 338 338 337 343 348 349 353 359 4 18 53 83 96 105 113 117 119 121 122 123 122 121 119 117 116 113 111 113 114 116 119 122 133 149 174 202 222 231
336 339 340 340 341 343 347 352 355 360 2 12 27 36 43 61 75 85 92 98 104 106 107 107 109 111 111 111 111 110 109 108 107 106 109 115 125 151 181 209 222 228 236
342 345 344 342 343 347 355 5 9 12 17 36 45 50 55 64 72 78 83 88 92 96 100 101 101 102 103 107 109 108 110 110 107 102 100 106 139 209 222 229 225 222 234
342 345 346 347 349 353 3 15 22 25 36 50 53 56 63 68 72 77 82 86 90 94 97 100 101 100 103 110 109 109 105 103 102 99 96 110 152 358 330 306 289 268 250
341 347 347 349 352 360 16 27 31 39 49 56 58 62 70 75 77 81 84 86 89 92 93 96 99 101 107 108 105 102 101 99 103 111 116 107 74 31 303 299 300 296 293
344 348 352 358 3 14 30 41 47 53 58 60 61 64 72 78 81 84 85 85 87 89 90 91 93 95 101 101 101 102 102 106 112 116 123 125 304 303 292 263 261 261 270
1 0 8 18 24 29 39 52 54 57 62 62 63 66 74 80 82 84 84 85 88 86 85 85 86 89 96 105 110 112 113 105 101 102 117 280 281 302 309 304 276 275 274
39 33 32 41 42 38 51 63 61 61 63 64 66 67 73 79 80 80 81 82 83 84 83 78 74 80 82 108 115 119 106 102 102 97 316 317 314 311 315 307 283 284 280
64 59 59 55 46 49 67 71 66 62 62 69 70 69 71 76 79 78 77 83 86 85 81 78 65 57 60 72 83 97 107 114 129 249 281 288 316 319 320 324 312 294 303
88 80 76 66 53 62 79 79 70 67 72 75 75 71 69 73 77 80 75 76 85 86 83 82 70 48 38 53 57 55 49 49 139 292 279 287 317 328 330 327 312 312 323
120 103 98 85 67 64 83 89 81 83 84 80 76 73 70 66 69 78 80 74 73 82 79 77 72 50 32 27 39 34 19 3 355 302 319 329 335 336 332 321 324 335 332
135 123 113 101 86 74 78 86 91 90 91 86 79 75 76 71 62 62 70 78 80 84 84 85 79 50 15 347 334 329 328 338 336 343 353 348 343 339 330 330 331 321 303
138 129 125 118 111 100 90 89 97 102 97 89 83 77 74 78 72 67 75 89 96 121 115 116 117 94 328 326 1 5 328 335 332 35 17 346 337 337 332 327 321 316 316
142 134 130 127 122 114 104 98 103 110 109 100 89 85 84 79 78 75 63 73 81 79 80 88 100 347 4 7 4 357 358 355 354 16 355 334 328 324 321 320 319 315 309
Height
1480 1482 1483 1484 1484 1485 1486 1488 1489 1491 1492 1493 1494 1495 1497 1499 1501 1503 1506 1509 1511 1513 1515 1517 1520 1522 1524 1526 1529 1531 1533 1535 1536 1537 1538 1538 1538 1538 1538 1538 1539 1539 1539
1474 1475 1476 1476 1476 1477 1478 1480 1481 1483 1485 1486 1487 1488 1490 1491 1494 1496 1499 1502 1504 1506 1508 1511 1513 1516 1518 1521 1523 1526 1528 1530 1532 1533 1534 1534 1535 1533 1534 1534 1535 1535 1535
1470 1470 1469 1469 1469 1470 1471 1473 1475 1476 1478 1479 1481 1481 1482 1483 1485 1487 1490 1493 1496 1499 1502 1504 1506 1509 1512 1514 1516 1519 1522 1524 1526 1528 1529 1529 1528 1529 1529 1530 1531 1531 1531
1469 1467 1466 1465 1465 1465 1465 1466 1468 1470 1471 1473 1473 1474 1474 1474 1476 1479 1482 1485 1488 1491 1494 1497 1499 1502 1504 1506 1509 1512 1514 1517 1519 1521 1523 1524 1524 1525 1524 1526 1526 1526 1527
1467 1466 1465 1464 1463 1462 1462 1462 1463 1464 1465 1466 1466 1466 1467 1468 1470 1472 1474 1476 1479 1482 1486 1489 1491 1494 1496 1499 1501 1504 1507 1509 1512 1514 1516 1517 1519 1519 1520 1520 1521 1522 1522
1466 1465 1463 1462 1461 1460 1459 1459 1459 1459 1459 1459 1460 1460 1460 1461 1462 1464 1465 1468 1470 1473 1476 1480 1483 1486 1488 1491 1493 1496 1500 1502 1505 1508 1509 1511 1512 1513 1514 1515 1515 1516 1517
1465 1463 1461 1459 1458 1457 1456 1455 1454 1454 1454 1454 1453 1453 1453 1454 1454 1456 1458 1459 1461 1464 1467 1471 1474 1477 1480 1483 1486 1489 1492 1495 1498 1500 1502 1505 1507 1508 1508 1509 1510 1510 1511
1465 1462 1460 1458 1455 1453 1452 1450 1449 1448 1448 1447 1447 1447 1447 1447 1447 1449 1450 1451 1453 1455 1459 1462 1465 1468 1472 1475 1478 1481 1485 1488 1490 1493 1495 1498 1500 1502 1503 1504 1505 1505 1505
1463 1461 1458 1455 1452 1450 1448 1446 1444 1442 1442 1441 1440 1440 1440 1440 1440 1441 1442 1444 1445 1448 1451 1453 1457 1460 1463 1466 1470 1473 1477 1480 1483 1485 1488 1491 1493 1495 1496 1498 1499 1501 1500
1461 1458 1455 1451 1448 1446 1443 1441 1439 1437 1435 1435 1434 1433 1433 1433 1434 1434 1435 1436 1438 1440 1443 1445 1449 1452 1455 1459 1463 1467 1470 1473 1476 1479 1481 1484 1487 1489 1490 1492 1494 1495 1495
1459 1456 1452 1448 1445 1441 1438 1436 1434 1432 1430 1429 1428 1427 1426 1427 1427 1427 1428 1429 1431 1433 1436 1439 1442 1445 1449 1453 1457 1461 1464 1467 1470 1473 1476 1478 1481 1484 1486 1486 1487 1488 1489
1457 1453 1449 1445 1441 1438 1435 1432 1430 1428 1426 1424 1422 1421 1421 1421 1421 1421 1422 1424 1425 1427 1430 1434 1437 1441 1444 1448 1452 1455 1458 1462 1465 1468 1472 1475 1477 1479 1481 1482 1482 1483 1482
1454 1451 1447 1443 1439 1435 1432 1429 1427 1425 1423 1420 1418 1417 1417 1417 1417 1417 1418 1420 1421 1424 1426 1430 1433 1437 1440 1444 1447 1451 1455 1459 1463 1466 1469 1471 1473 1475 1476 1476 1476 1476 1476
1452 1448 1445 1441 1438 1434 1431 1428 1426 1423 1421 1419 1416 1415 1414 1414 1414 1415 1416 1417 1419 1421 1424 1427 1430 1434 1437 1441 1445 1449 1454 1458 1461 1464 1466 1468 1469 1470 1470 1470 1470 1470 1469
1450 1446 1443 1440 1437 1434 1431 1428 1425 1423 1421 1418 1416 1414 1413 1413 1413 1413 1414 1416 1418 1420 1423 1425 1429 1433 1437 1441 1445 1449 1453 1457 1460 1462 1463 1464 1465 1465 1465 1465 1465 1464 1464
1448 1445 1443 1440 1437 1434 1431 1429 1426 1424 1422 1419 1417 1416 1414 1414 1413 1413 1414 1416 1418 1421 1423 1426 1430 1434 1438 1442 1447 1451 1454 1456 1458 1459 1460 1460 1460 1461 1461 1460 1460 1460 1459
1447 1445 1442 1439 1437 1435 1432 1430 1428 1425 1423 1421 1420 1419 1417 1416 1416 1416 1417 1419 1421 1424 1427 1430 1433 1437 1441 1445 1448 1451 1453 1454 1455 1456 1457 1457 1457 1457 1456 1455 1454 1454 1453
1446 1444 1442 1440 1438 1436 1434 1431 1429 1427 1426 1424 1423 1422 1421 1420 1420 1421 1422 1424 1426 1428 1431 1434 1438 1441 1444 1447 1448 1450 1451 1452 1453 1454 1454 1455 1454 1453 1451 1449 1448 1447 1446
1446 1444 1442 1440 1439 1437 1435 1433 1431 1430 1429 1428 1427 1426 1426 1426 1426 1427 1428 1430 1432 1434 1436 1439 1442 1444 1446 1447 1448 1449 1450 1450 1451 1452 1452 1451 1450 1448 1446 1445 1443 1442 1440
1445 1444 1442 1441 1439 1438 1437 1435 1434 1433 1432 1431 1431 1431 1432 1432 1432 1433 1434 1436 1438 1440 1441 1443 1444 1446 1447 1448 1448 1449 1449 1449 1450 1449 1449 1447 1445 1444 1442 1441 1439 1436 1434
1445 1444 1443 1442 1441 1440 1439 1438 1437 1436 1436 1436 1436 1437 1437 1438 1439 1440 1441 1442 1443 1444 1445 1445 1446 1447 1448 1449 1448 1448 1448 1447 1447 1446 1445 1443 1441 1440 1439 1437 1434 1432 1429
1445 1445 1444 1443 1442 1442 1442 1441 1440 1441 1441 1442 1442 1442 1443 1444 1444 1445 1445 1446 1446 1447 1447 1448 1448 1449 1449 1449 1448 1447 1446 1445 1444 1443 1441 1439 1438 1436 1434 1432 1429 1427 1424
1446 1446 1446 1445 1445 1445 1445 1445 1445 1445 1446 1446 1447 1447 1448 1448 1448 1449 1449 1449 1449 1449 1449 1449 1449 1449 1448 1448 1447 1445 1444 1442 1441 1439 1437 1436 1434 1432 1429 1427 1425 1422 1420
1447 1447 1447 1447 1447 1447 1448 1448 1449 1449 1450 1450 1451 1451 1451 1451 1451 1451 1451 1451 1451 1450 1450 1449 1449 1448 1447 1446 1444 1443 1441 1439 1438 1436 1434 1432 1430 1428 1426 1424 1422 1419 1417
1447 1448 1448 1449 1449 1450 1450 1451 1452 1453 1454 1454 1454 1454 1454 1454 1454 1453 1453 1452 1451 1451 1450 1449 1448 1447 1445 1444 1443 1441 1439 1437 1435 1433 1431 1429 1427 1425 1423 1421 1419 1417 1414
1447 1448 1449 1450 1451 1452 1452 1453 1454 1455 1456 1456 1456 1456 1456 1455 1455 1454 1453 1452 1451 1450 1449 1448 1447 1445 1444 1442 1441 1439 1437 1435 1433 1431 1429 1426 1424 1422 1420 1418 1416 1414 1412